Spokane Felts, WA
on Friday, February 15, 2013

Friday
Previous Day Next Day
Daily Summary
 ActualAverageRecord
Temperature
Mean Temperature °F 34°F  
Max Temperature 52°F 42°F 52°F (2013)
Min Temperature 25°F 26°F 15°F (2006)
Degree Days
Heating Degree Days 26 31  
Month to date heating degree days 435 474  
Since 1 July heating degree days 3736 4186  
Cooling Degree Days 0 0  
Month to date cooling degree days 0 0  
Year to date cooling degree days 0 0  
Moisture
Dew Point 27°F   
Average Humidity 71    
Maximum Humidity 92    
Minimum Humidity 50    
Precipitation
Precipitation 0.00 in 0.05 in 0.27 in (2014)
Month to date precipitation 0.08 0.85  
Year to date precipitation 1.71 2.80  
Wind
Wind Speed 1 mph   
Max Wind Speed 7 mph   
Max Gust Speed 8 mph   
Visibility 7 miles   
Events Fog   

Key: T is trace of precipitation, MM is missing value
Source: NWS Daily Summary
Time(PST)TemperatureDew PointHumidity Pressure Visibility Wind DirectionWind SpeedGust SpeedPrecipitationEvents Conditions
12:53 AM 28.0°F 24.1°F 85% 30.57 in 8.0 miles Calm Calm - N/A   Clear
1:53 AM 28.0°F 25.0°F 88% 30.57 in 9.0 miles Calm Calm - N/A   Clear
2:53 AM 27.0°F 24.1°F 89% 30.57 in 5.0 miles Calm Calm - N/A   Clear
2:56 AM 26.6°F 23.0°F 86% 30.53 in 1.8 miles Calm Calm - N/A   Clear
3:25 AM 26.6°F 23.0°F 86% 30.53 in 2.0 miles Calm Calm - N/A   Scattered Clouds
3:27 AM 26.6°F 23.0°F 86% 30.53 in 4.0 miles Calm Calm - N/A   Mostly Cloudy
3:45 AM 26.6°F 24.8°F 93% 30.53 in 5.0 miles Calm Calm - N/A   Scattered Clouds
3:53 AM 27.0°F 23.0°F 85% 30.58 in 2.5 miles ENE 3.5 mph - N/A   Scattered Clouds
4:09 AM 26.6°F 24.8°F 93% 30.53 in 6.0 miles NE 3.5 mph - N/A   Clear
4:28 AM 26.6°F 24.8°F 93% 30.52 in 9.0 miles NE 3.5 mph - N/A   Partly Cloudy
4:53 AM 26.1°F 23.0°F 88% 30.57 in 8.0 miles Calm Calm - N/A   Clear
5:53 AM 27.0°F 23.0°F 85% 30.58 in 6.0 miles Calm Calm - N/A   Clear
6:53 AM 27.0°F 23.0°F 85% 30.59 in 6.0 miles Calm Calm - N/A   Clear
7:05 AM 26.6°F 23.0°F 86% 30.53 in 4.0 miles Calm Calm - N/A   Scattered Clouds
7:17 AM 24.8°F 21.2°F 86% 30.53 in 5.0 miles SW 3.5 mph - N/A   Mostly Cloudy
7:53 AM 28.0°F 24.1°F 85% 30.59 in 7.0 miles Calm Calm - N/A   Mostly Cloudy
8:00 AM 26.6°F 23.0°F 86% 30.52 in 7.0 miles Calm Calm - N/A   Mostly Cloudy
8:14 AM 28.4°F 24.8°F 86% 30.52 in 1.8 miles ESE 3.5 mph - N/A   Overcast
8:27 AM 28.4°F 24.8°F 86% 30.52 in 0.8 miles East 3.5 mph - N/A   Overcast
8:35 AM 28.4°F 26.6°F 93% 30.52 in 0.5 miles East 3.5 mph - N/A Fog Light Freezing Fog
8:41 AM 28.4°F 26.6°F 93% 30.52 in 3.0 miles Calm Calm - N/A   Overcast
8:53 AM 30.0°F 26.1°F 85% 30.58 in 7.0 miles Calm Calm - N/A   Partly Cloudy
9:53 AM 34.0°F 28.9°F 82% 30.58 in 10.0 miles Calm Calm - N/A   Clear
10:53 AM 37.9°F 30.0°F 73% 30.56 in 10.0 miles Calm Calm - N/A   Clear
11:53 AM 43.0°F 30.9°F 62% 30.53 in 10.0 miles Calm Calm - N/A   Clear
12:53 PM 46.0°F 32.0°F 58% 30.50 in 10.0 miles Calm Calm - N/A   Clear
1:53 PM 48.9°F 32.0°F 52% 30.46 in 10.0 miles Calm Calm - N/A   Partly Cloudy
2:53 PM 52.0°F 33.1°F 49% 30.44 in 10.0 miles NNE 3.5 mph - N/A   Partly Cloudy
3:53 PM 50.0°F 33.1°F 52% 30.43 in 10.0 miles Variable 3.5 mph - N/A   Clear
4:53 PM 48.0°F 33.1°F 56% 30.40 in 10.0 miles Calm Calm - N/A   Clear
5:53 PM 39.9°F 32.0°F 73% 30.39 in 10.0 miles NNE 4.6 mph - N/A   Clear
6:53 PM 37.0°F 30.9°F 79% 30.38 in 10.0 miles Calm Calm - N/A   Clear
7:53 PM 34.0°F 28.9°F 82% 30.37 in 10.0 miles ENE 3.5 mph - N/A   Clear
8:53 PM 37.0°F 30.0°F 76% 30.34 in 10.0 miles NE 3.5 mph - N/A   Clear
9:53 PM 33.1°F 28.9°F 85% 30.32 in 10.0 miles Calm Calm - N/A   Clear
10:53 PM 32.0°F 28.0°F 85% 30.32 in 10.0 miles Calm Calm - N/A   Clear
11:53 PM 30.0°F 27.0°F 88% 30.30 in 10.0 miles Calm Calm - N/A   Clear
Moon Phase
Feb. 15 Feb. 17 Feb. 25 Mar. 04 Mar. 11
Sunrise:06:54 AM (PST) Moon Rise:09:04 AM (PST)2/15
Sunset:05:13 PM (PST) Moon Set:11:49 PM (PST)2/15

Copyright © 2014 The Weather Underground, Inc.